This is the latest recevied weather packets stored in our database for station/object N5PA. If no packets are shown the sender has not sent any weather packets the latest 10 day(s).
| Time | Temp. | Humidity | Pressure | Rain* | Wind** | Luminosity | Snow |
|---|---|---|---|---|---|---|---|
| 1778118607 | 22.78° C | 34% | 1010.9 hPa | 0.51 mm | - | 993 W/m² | - |
| 1778118305 | 23.33° C | 33% | 1011.2 hPa | 0.76 mm | - | 993 W/m² | - |
| 1778118007 | 23.33° C | 33% | 1011.2 hPa | 0.76 mm | - | 993 W/m² | - |
| 1778117706 | 23.33° C | 32% | 1011.1 hPa | 0.76 mm | - | 993 W/m² | - |
| 1778117407 | 23.33° C | 31% | 1010.6 hPa | 1.02 mm | - | 993 W/m² | - |
| 1778117105 | 23.33° C | 31% | 1011 hPa | 1.27 mm | - | 991 W/m² | - |
| 1778116807 | 23.33° C | 32% | 1011 hPa | 1.27 mm | - | 991 W/m² | - |
| 1778116504 | 23.89° C | 31% | 1010.9 hPa | 1.52 mm | - | 990 W/m² | - |
| 1778116206 | 23.89° C | 28% | 1011 hPa | 1.27 mm | - | 991 W/m² | - |
| 1778115906 | 24.44° C | 28% | 1010.5 hPa | 1.02 mm | - | 991 W/m² | - |
| 1778115606 | 24.44° C | 27% | 1010.6 hPa | 1.02 mm | - | 991 W/m² | - |
| 1778115307 | 24.44° C | 27% | 1010.5 hPa | 1.02 mm | - | 991 W/m² | - |
| 1778115005 | 24.44° C | 27% | 1010 hPa | 1.02 mm | - | 990 W/m² | - |
| 1778114706 | 24.44° C | 28% | 1009.9 hPa | 0.76 mm | - | 991 W/m² | - |
| 1778114405 | 24.44° C | 27% | 1009.7 hPa | 4.06 mm | - | 991 W/m² | - |
| 1778114107 | 24.44° C | 27% | 1010.1 hPa | 7.11 mm | - | 991 W/m² | - |
| 1778113806 | 24.44° C | 28% | 1010.5 hPa | 7.11 mm | - | 986 W/m² | - |
| 1778113506 | 24.44° C | 29% | 1010.5 hPa | 8.13 mm | - | 991 W/m² | - |
| 1778113205 | 24.44° C | 30% | 1010 hPa | 9.14 mm | - | 991 W/m² | - |
| 1778112905 | 24.44° C | 32% | 1009.8 hPa | 9.65 mm | - | 988 W/m² | - |
| 1778112606 | 24.44° C | 32% | 1009.6 hPa | 10.16 mm | - | 993 W/m² | - |
| 1778112307 | 24.44° C | 33% | 1009.8 hPa | 10.67 mm | - | 993 W/m² | - |
| 1778112006 | 24.44° C | 35% | 1009.5 hPa | 10.67 mm | - | 990 W/m² | - |
| 1778111706 | 25° C | 36% | 1009.9 hPa | 10.67 mm | - | 993 W/m² | - |
| 1778111404 | 25° C | 38% | 1009.5 hPa | 10.67 mm | - | 993 W/m² | - |
* Rain latest hour (hover to see other rain measurements)
** Current wind speed in m/s (hover to see current wind gust speed)